STARLINK-34803, 65059

Orbit data source: Space-Track

STARLINK-34803, 65059 is a payload satellite owned by SpaceX/Seattle (US) in SSO that was launched on Thu, 31 Jul 2025 UTC via an FALCON 9 launch vehicle from the Air Force Western Test Range (AFWTR). Payload-class satellites include a variety of spacecraft equipped with specific instruments for various scientific and technological missions. These include communications satellites like Starlink; space stations such as the ISS; scientific satellites like the Hubble; Earth observation satellites from companies like Planet Labs, Umbra, and HawkEye 360; GPS; miniature CubeSats for education and research; and military/defense satellites.

Loading next visibility...
Identifier
65059, 2025-165D
Orbit
SSO
Country
Flag of USUS
Related business
Manufacturer
SpaceX/Seattle
Mission
Operational Commercial Communications
Bus & Motor
STARLINK V2MO, Unknown motor
Mass
575 kg wet, ~530 kg dry
Launch date (UTC)
2025-07-31 (11 months ago)
Launch vehicle
FALCON 9
Launch site
Air Force Western Test Range (AFWTR)
Object type
Payload
Rocket body
Debris
Shape & HBR
Box + 2 Pan, 17.7 m
Radar Cross Section
36.964 m², Large (>1 m²)

Expand to show TLE details & history
Last TLE update: 13 hours ago

TLE from 13 hours ago
0 STARLINK-34803
1 65059U 25165D   26171.44852250  .00006399  00000-0  44688-3 0  9991
2 65059  97.3344 247.4409 0001211 122.5309 237.6036 15.05667518 50257
Epoch: 2026-06-20T10:45Z
TLE epoch observation values (Epoch: 2026-06-20T10:45:52.344Z)
Latitude
0.00004°
Longitude
177.3098°
Altitude
552.98 km
Speed
7.585 km/s
True Right ascension
16h 29m 45s
True Declination
0° 00' 00"
Sunlit
Object was in full shadow at epoch
Visualization orbit readout
Latitude
Unknown
Longitude
Unknown
Altitude
Unknown
Speed
Unknown
Apparent Right ascension
Unknown
Apparent Declination
Unknown
Sunlit
N/A
Visualization observer readout
Local Sidereal Time
10:18:32
Azimuth
Unknown
Elevation
Unknown
Doppler factor
Unknown
Orbital elements
Apogee altitude
547.278 km
Perigee altitude
545.601 km
Semi-major axis
6,924.576 km
Eccentricity
0.00012
Inclination
97.3344°
RAAN
247.4409°
Arg. of periapsis
122.5309°
True anomaly
237.59188°
Mean anomaly
237.6036°
Eccentric anomaly
237.59774°
Mean motion
3.76663 °/min
Orbital period
95.58 mins
BSTAR
0.00044688
Loading maneuver chart data...
Computing Atmospheric mass density...
Loading historical data...
Loading historical data...
Loading historical data...
Loading historical data...
Loading historical data...
Loading historical data...
Loading historical data...

Documentation

Showing up to 5 results
|